(9791) Kamiyakurai = 1995 YD1

Discovered at Oizumi on 1995-12-21 by T. Kobayashi.
(9791) Kamiyakurai = 1995 YD1

Yakuraisan, popularly called Kami Fuji, is a mountain located in the town of Kami in northeastern Japan. People come here to enjoy beautiful seasonal nature, flowers and starry nights. [Ref: Minor Planet Circ. 103023]

Orbit

Orbit type: Main Belt

Note: WebGL enabled browser required.

epoch2024-03-31.0
epoch JD2460400.5
perihelion date2022-06-25.39426
perihelion JD2459755.89426
argument of perihelion (°)201.87458
ascending node (°)109.61356
inclination (°)8.79675
eccentricity0.0715669
perihelion distance (AU)2.1367757
Tisserand w.r.t. Jupiter3.6
ΔV w.r.t. Earth (km/sec)9.5
semimajor axis (AU)2.3014859
mean anomaly (°)181.96402
mean daily motion (°/day)0.28228730
aphelion distance (AU)2.466
period (years)3.49
P-vector [x]0.65833676
P-vector [y]-0.66596439
P-vector [z]-0.35083350
Q-vector [x]0.73881014
Q-vector [y]0.66089014
Q-vector [z]0.13184765
absolute magnitude14.08
phase slope0.15
uncertainty0
referenceMPEC 2024-F28
observations used3270
oppositions23
arc length (days)12350
first opposition used1990
last opposition used2024
residual rms (arc-secs)0.58
perturbers coarse indicatorM-v
perturbers precise indicator003Ek
first observation date used1990-05-25.0
last observation date used2024-03-17.0
computer nameMPCLINUX
JD of orbit computation2456937.265847
perihelion JD uncertainty (days)1.0725E-04
argument of perihelion uncertainty (°)3.7384E-05
ascending node uncertainty (°)2.4510E-05
inclination uncertainty (°)3.5630E-06
eccentricity uncertainty 3.2230E-08
perihelion distance uncertainty (AU)7.5113E-08
Minimum Orbit Intersection Distances (in AU)
for orbit epoch: 2460400.5, reference: E2024-GB3
Mercury1.69845
Venus1.4086
Earth1.12398
Mars0.72645
Jupiter2.69608
Saturn6.61039
Uranus16.0112
Neptune27.5279

Observations

3324 total observations over interval: 1990 05 25.31024 – 2024 03 17.276771
These data are available for download (format description).

Date (UT) J2000 RA J2000 Dec Magn Location Ref
1990 05 25.31024 15 33 40.65 -06 18 30.2   675 – Palomar Mountain MPC 29998
1990 05 25.34010 15 33 38.73 -06 18 29.3   675 – Palomar Mountain MPC 29998
1993 03 24.23264 11 16 00.60 +18 33 42.3   675 – Palomar Mountain MPS 654
1993 03 24.27066 11 15 58.70 +18 33 54.4   675 – Palomar Mountain MPS 654
1995 12 21.61050 07 38 35.63 +19 57 31.3 17   411 – Oizumi MPC 26257
1995 12 21.62399 07 38 34.86 +19 57 35.6   411 – Oizumi MPC 26257
1995 12 22.63197 07 37 41.57 +20 03 09.5   411 – Oizumi MPC 26257
1995 12 22.65211 07 37 40.46 +20 03 16.8   411 – Oizumi MPC 26257
1995 12 26.57075 07 33 59.98 +20 25 35.1   411 – Oizumi MPC 26257
1995 12 26.59395 07 33 58.50 +20 25 43.3   411 – Oizumi MPC 26257
1995 12 30.70858 07 29 47.16 +20 50 00.7   411 – Oizumi MPC 26471
1995 12 30.73591 07 29 45.41 +20 50 11.1   411 – Oizumi MPC 26471
1996 01 10.52701 07 17 51.53 +21 55 05.6   411 – Oizumi MPC 26471
1996 01 10.54847 07 17 49.94 +21 55 13.4   411 – Oizumi MPC 26471
1996 01 13.59979 07 14 23.95 +22 13 12.8 16.5 V 385 – Nihondaira Observatory MPC 26466
1996 01 13.60420 07 14 23.67 +22 13 14.3   385 – Nihondaira Observatory MPC 26466
1996 01 13.60848 07 14 23.23 +22 13 16.2   385 – Nihondaira Observatory MPC 26466
1996 01 24.46106 07 02 51.96 +23 12 49.1   411 – Oizumi MPC 26471
1996 01 24.48277 07 02 50.64 +23 12 56.4   411 – Oizumi MPC 26471
1997 05 30.91454 15 38 17.79 -07 14 05.1 17.8   124 – Castres MPC 29979
1997 05 30.92316 15 38 17.21 -07 14 04.3 17.3   124 – Castres MPC 29979
1997 06 12.30206 15 27 43.24 -07 43 43.5 17.1 R 688 – Lowell Observatory, Anderson Mesa Station MPC 30364
1997 06 12.31433 15 27 42.70 -07 43 46.6 17.0 R 688 – Lowell Observatory, Anderson Mesa Station MPC 30364
1998 10 16.40849 03 26 26.58 +04 18 44.6 17.5   704 – Lincoln Laboratory ETS, New Mexico MPS 2539
1998 10 16.42855 03 26 25.75 +04 18 39.4   704 – Lincoln Laboratory ETS, New Mexico MPS 2539
1998 10 16.44887 03 26 24.74 +04 18 33.8 18.0   704 – Lincoln Laboratory ETS, New Mexico MPS 2539
1998 11 13.33630 02 59 59.20 +02 48 10.4 17.6   704 – Lincoln Laboratory ETS, New Mexico MPS 3007
1998 11 13.34599 02 59 58.57 +02 48 10.0 17.8   704 – Lincoln Laboratory ETS, New Mexico MPS 3007
1998 11 13.35574 02 59 57.86 +02 48 09.3 17.8   704 – Lincoln Laboratory ETS, New Mexico MPS 3007
1998 11 13.36552 02 59 57.32 +02 48 08.0 17.8   704 – Lincoln Laboratory ETS, New Mexico MPS 3007
1998 11 13.37527 02 59 56.75 +02 48 07.9 17.8   704 – Lincoln Laboratory ETS, New Mexico MPS 3007
1998 11 14.56317 02 58 43.48 +02 46 47.8 17.1 V 367 – Yatsuka MPS 3007
1998 11 14.56804 02 58 43.19 +02 46 47.9   367 – Yatsuka MPS 3007
1998 11 16.09274 02 57 10.17 +02 45 30.7 17.8   704 – Lincoln Laboratory ETS, New Mexico MPS 3007
1998 11 16.11393 02 57 08.75 +02 45 30.8 17.2   704 – Lincoln Laboratory ETS, New Mexico MPS 3007
1998 11 16.13509 02 57 07.41 +02 45 28.1 16.2   704 – Lincoln Laboratory ETS, New Mexico MPS 3007
1998 11 16.15633 02 57 06.06 +02 45 28.5 16.6   704 – Lincoln Laboratory ETS, New Mexico MPS 3007
1998 11 16.17750 02 57 04.72 +02 45 27.8 16.6   704 – Lincoln Laboratory ETS, New Mexico MPS 3007
1998 12 23.16333 02 34 37.96 +04 32 34.4 17.7 R 699 – Lowell Observatory-LONEOS MPS 58177
1998 12 23.18370 02 34 37.84 +04 32 42.2   699 – Lowell Observatory-LONEOS MPS 58177
1998 12 23.20410 02 34 37.70 +04 32 50.1   699 – Lowell Observatory-LONEOS MPS 58177
1999 01 11.13754 02 38 18.44 +06 46 39.2 18.2   704 – Lincoln Laboratory ETS, New Mexico MPS 3764
1999 01 11.14816 02 38 18.75 +06 46 43.6 18.2   704 – Lincoln Laboratory ETS, New Mexico MPS 3764
1999 01 11.15870 02 38 19.04 +06 46 49.1 18.2   704 – Lincoln Laboratory ETS, New Mexico MPS 3764
1999 01 11.16919 02 38 19.26 +06 46 54.1 18.6   704 – Lincoln Laboratory ETS, New Mexico MPS 3764
1999 01 11.17967 02 38 19.25 +06 47 00.7 18.9   704 – Lincoln Laboratory ETS, New Mexico MPS 3764
1999 02 04.17052 02 55 47.43 +10 10 00.6 18.5 R 699 – Lowell Observatory-LONEOS MPS 59280
1999 02 04.18323 02 55 48.24 +10 10 08.2   699 – Lowell Observatory-LONEOS MPS 59280
1999 02 04.19594 02 55 48.96 +10 10 14.6   699 – Lowell Observatory-LONEOS MPS 59280
2000 01 04.44880 11 53 00.60 +08 55 15.2 17.7   704 – Lincoln Laboratory ETS, New Mexico MPS 9698
2000 01 04.46359 11 53 01.08 +08 55 15.1 18.1   704 – Lincoln Laboratory ETS, New Mexico MPS 9698
2000 01 04.47838 11 53 01.62 +08 55 16.4 18.2   704 – Lincoln Laboratory ETS, New Mexico MPS 9698
2000 01 04.49319 11 53 02.13 +08 55 18.9 18.9   704 – Lincoln Laboratory ETS, New Mexico MPS 9698
2000 01 04.50802 11 53 02.65 +08 55 19.4 18.6   704 – Lincoln Laboratory ETS, New Mexico MPS 9698
2000 01 07.45143 11 54 43.77 +09 00 34.9 17.8   704 – Lincoln Laboratory ETS, New Mexico MPS 9698
2000 01 07.46614 11 54 44.24 +09 00 37.3 18.4   704 – Lincoln Laboratory ETS, New Mexico MPS 9698
2000 01 07.48335 11 54 44.72 +09 00 38.7 18.0   704 – Lincoln Laboratory ETS, New Mexico MPS 9698
2000 01 07.49990 11 54 45.39 +09 00 38.5 19.0   704 – Lincoln Laboratory ETS, New Mexico MPS 9698
2000 01 07.51631 11 54 45.78 +09 00 42.4 18.4   704 – Lincoln Laboratory ETS, New Mexico MPS 9698
2000 01 10.44647 11 56 14.25 +09 07 39.8 17.7 R 699 – Lowell Observatory-LONEOS MPS 9698
2000 01 10.46685 11 56 14.84 +09 07 44.4   699 – Lowell Observatory-LONEOS MPS 9698
2000 01 10.48725 11 56 15.34 +09 07 47.0   699 – Lowell Observatory-LONEOS MPS 9698
2000 02 01.39976 12 00 10.40 +10 53 55.6 17.7 R 703 – Catalina Sky Survey MPS 10624
2000 02 01.41142 12 00 10.23 +10 54 00.8 17.9 R 703 – Catalina Sky Survey MPS 10624
2000 02 01.42318 12 00 10.14 +10 54 05.9 18.0 R 703 – Catalina Sky Survey MPS 10624
2000 02 01.43492 12 00 10.03 +10 54 10.5 18.0 R 703 – Catalina Sky Survey MPS 10624
2000 02 04.37169 11 59 39.53 +11 15 23.8 17.9   704 – Lincoln Laboratory ETS, New Mexico MPS 10624
2000 02 04.38590 11 59 39.31 +11 15 31.1 18.1   704 – Lincoln Laboratory ETS, New Mexico MPS 10624
2000 02 04.40018 11 59 39.12 +11 15 37.1 18.2   704 – Lincoln Laboratory ETS, New Mexico MPS 10624
2000 02 04.41446 11 59 38.85 +11 15 43.5 18.3   704 – Lincoln Laboratory ETS, New Mexico MPS 10624
2000 02 04.42880 11 59 38.65 +11 15 50.7 18.2   704 – Lincoln Laboratory ETS, New Mexico MPS 10624
2000 02 14.41015 11 56 01.27 +12 37 49.3 17.7   704 – Lincoln Laboratory ETS, New Mexico MPS 10624
2000 02 14.42393 11 56 00.73 +12 37 57.8 17.9   704 – Lincoln Laboratory ETS, New Mexico MPS 10624
2000 02 14.43771 11 56 00.33 +12 38 04.9 18.4   704 – Lincoln Laboratory ETS, New Mexico MPS 10624
2000 03 05.30716 11 41 28.17 +15 40 53.4 16.5   704 – Lincoln Laboratory ETS, New Mexico MPS 11655
2000 03 05.32037 11 41 27.43 +15 41 00.6 17.1   704 – Lincoln Laboratory ETS, New Mexico MPS 11655
2000 03 05.33360 11 41 26.68 +15 41 07.4 17.1   704 – Lincoln Laboratory ETS, New Mexico MPS 11655
2000 03 05.34682 11 41 25.96 +15 41 14.4 17.0   704 – Lincoln Laboratory ETS, New Mexico MPS 11655
2000 03 05.36007 11 41 25.20 +15 41 21.8 17.4   704 – Lincoln Laboratory ETS, New Mexico MPS 11655
2000 03 09.30011 11 37 46.70 +16 15 24.5 16.6   704 – Lincoln Laboratory ETS, New Mexico MPS 11655
2000 03 09.31332 11 37 45.94 +16 15 30.9 17.3   704 – Lincoln Laboratory ETS, New Mexico MPS 11655
2000 03 09.32652 11 37 45.16 +16 15 37.6 17.2   704 – Lincoln Laboratory ETS, New Mexico MPS 11655
2000 03 09.33980 11 37 44.39 +16 15 44.3 17.5   704 – Lincoln Laboratory ETS, New Mexico MPS 11655
2000 03 09.35344 11 37 43.58 +16 15 51.4 17.4   704 – Lincoln Laboratory ETS, New Mexico MPS 11655
2000 03 10.36874 11 36 46.21 +16 24 16.6 15.3   704 – Lincoln Laboratory ETS, New Mexico MPS 11655
2000 03 10.38260 11 36 45.37 +16 24 23.0 15.3   704 – Lincoln Laboratory ETS, New Mexico MPS 11655
2000 03 10.39612 11 36 44.58 +16 24 30.0 15.7   704 – Lincoln Laboratory ETS, New Mexico MPS 11655
2000 03 10.41049 11 36 43.71 +16 24 36.4 15.5   704 – Lincoln Laboratory ETS, New Mexico MPS 11655
